Starlink 1648

operational
NORAD ID: 46533 Int'l Des: 2020-070 Owner: SPXS Country: US Constellation: starlink
LEOCIRCULARSTARLINK_TYPE

About Starlink 1648

Description loading...

Live Position

Loading 3D Globe...

Upcoming Passes

Altitude History

Altitude vs Time

uPlot chart will show altitude changes over time

Two-Line Element Set

1 46533U 20070B 25304.33336806 .00169499 00000-0 42451-2 0 9992
2 46533 53.0545 35.4683 0001581 84.5407 228.5763 15.38954644 5802
Epoch: Oct 31, 2025 • Age: 9 hours

Current Status

Altitude 449.5 km
Velocity 7.65 km/s
Sub-Earth Point 27.01°N, 98.27°W
Launch Date Oct 6, 2020
Age 5 years
Type internet

Technical Details

Classification Payload
Mass 260.00 kg
Dry Mass 248.00 kg
Total Mass 260.00 kg
Length 0.20 m
Diameter 2.80 m
Span 9.00 m
Shape Box + pan
Manufacturer SPXS
Bus Type Starlink
Phase Status In Orbit
Owner/State SPXS/US

Large Constellations

Loading constellations...